Content
SEND FEEDBACK

Daily
Averages
Monthly
Summary
United States of America

SLOAN, NORTH CAROLINA


Home > North America > United States > North Carolina
Elevation: 2 meters     Latitude: 34 47N     Longitude: 077 49W

WEATHER
 
SELECT A DAY
Number of Records: 432,042;   Date Range: 1/1/95 - 4/15/14
 
SHARE

PRINT THIS DATA

[ ← Previous Day ]
WEATHER ALMANAC - 23 JANUARY, 2013
[ Next Day → ]
[ °F ]   °C
Weather ElementAverageHighLow
Temperature-1 °C5 °C (3:15 pm)-6 °C (4:15 am)
Dewpoint-11.4 °C-6 °C (10:55 pm)-16 °C (10:15 am)
Humidity48.3 %74 % (10:55 pm)24 % (12:35 pm)
Barometer1026.1 hPa1029.8 hPa (10:15 am)1020.3 hPa (11:55 pm)
Wind Speed6.8 km/h16.7 km/h (10:55 am)
Wind Gust31.5 km/h (3:15 pm)
Weather ElementAverage
Visibility16.1 km
Wind DirectionSSE (160.1 °)

Weather ElementTotal
Precipitation---
Heating Degree Days18.8 (Base 18.3)
Averaged from 71 records on 23 January, 2013
WEATHER CONDITIONS BREAKOUT
WIND DIRECTION BREAKOUT
WEATHER BY HOUR - 23 JANUARY, 2013
[ °F ]   °C
Local TimeTemperatureDewpointHumidityBarometerVisibilityWind DirectionWind SpeedGust SpeedPrecipitationEventsConditions
12:35 AM-4 °C-11 °C59 %1025.4 hPa16.1 kmNorth (10°)7.4 km/hClear
12:55 AM-3 °C-13 °C47 %1025.7 hPa16.1 kmNorth (10°)9.3 km/hClear
1:15 AM-3 °C-13 °C47 %1025.7 hPa16.1 kmNorth (360°)9.3 km/hClear
1:35 AM-3 °C-13 °C47 %1025.7 hPa16.1 kmNorth (360°)7.4 km/hClear
1:55 AM-4 °C-12 °C54 %1026.1 hPa16.1 kmNorth (360°)5.6 km/hClear
2:15 AM-4 °C-12 °C54 %1026.1 hPa16.1 kmNorth (360°)7.4 km/hClear
2:35 AM-4 °C-12 °C54 %1026.1 hPa16.1 kmNorth (360°)7.4 km/hClear
2:55 AM-4 °C-12 °C54 %1026.4 hPa16.1 kmCalmClear
3:15 AM-4 °C-12 °C54 %1026.4 hPa16.1 kmCalmClear
3:35 AM-4 °C-12 °C54 %1026.8 hPa16.1 kmCalmClear
3:55 AM-4 °C-12 °C54 %1026.8 hPa16.1 kmCalmClear
4:15 AM-6 °C-11 °C68 %1026.4 hPa16.1 kmCalmClear
4:35 AM-4 °C-13 °C50 %1026.8 hPa16.1 kmNorth (350°)5.6 km/hClear
4:55 AM-6 °C-12 °C63 %1026.8 hPa16.1 kmCalmClear
5:15 AM-6 °C-12 °C63 %1027.1 hPa16.1 kmCalmClear
5:35 AM-6 °C-12 °C63 %1027.1 hPa16.1 kmCalmClear
5:55 AM-5 °C-12 °C59 %1027.4 hPa16.1 kmNorth (350°)7.4 km/hClear
6:15 AM-5 °C-13 °C54 %1027.8 hPa16.1 kmNorth (350°)5.6 km/hClear
6:35 AM-5 °C-13 °C54 %1027.8 hPa16.1 kmNorth (10°)7.4 km/hClear
6:55 AM-6 °C-12 °C63 %1028.1 hPa16.1 kmNorth (10°)5.6 km/hClear
7:15 AM-6 °C-12 °C63 %1028.1 hPa16.1 kmCalmClear
7:35 AM-6 °C-12 °C63 %1028.4 hPa16.1 kmNorth (360°)5.6 km/hClear
7:55 AM-5 °C-12 °C59 %1028.4 hPa16.1 kmCalmClear
8:15 AM-4 °C-12 °C54 %1028.8 hPa16.1 kmNNE (20°)9.3 km/hClear
8:35 AM-4 °C-13 °C50 %1028.8 hPa16.1 kmNNE (20°)11.1 km/hClear
8:55 AM-3 °C-12 °C51 %1029.1 hPa16.1 kmNNE (20°)9.3 km/hClear
9:15 AM-2 °C-14 °C40 %1029.5 hPa16.1 kmNNE (20°)13 km/hClear
9:35 AM-2 °C-14 °C40 %1029.5 hPa16.1 kmNorth (10°)9.3 km/hClear
9:55 AM-1 °C-15 °C34 %1029.5 hPa16.1 kmNorth (10°)9.3 km/hClear
10:15 AM-1 °C-16 °C32 %1029.8 hPa16.1 kmNNW (330°)5.6 km/hClear
10:35 AM1 °C-16 °C28 %1029.5 hPa16.1 kmNorth (350°)5.6 km/hClear
10:55 AM1 °C-16 °C28 %1029.1 hPa16.1 kmNNE (20°)16.7 km/hClear
11:15 AM1 °C-16 °C28 %1029.1 hPa16.1 kmNorth (10°)13 km/hClear
11:35 AM1 °C-16 °C28 %1028.8 hPa16.1 kmNW (320°)7.4 km/hClear
11:55 AM2 °C-16 °C26 %1028.4 hPa16.1 kmWNW (300°)11.1 km/hClear
12:15 PM2 °C-16 °C26 %1027.8 hPa16.1 kmNW (310°)9.3 km/hClear
12:35 PM3 °C-16 °C24 %1027.4 hPa16.1 kmWNW (290°)11.1 km/hClear
12:55 PM3 °C-15 °C26 %1027.1 hPa16.1 kmWNW (290°)9.3 km/hClear
1:15 PM3 °C-15 °C26 %1026.8 hPa16.1 kmWNW (300°)13 km/hClear
1:35 PM4 °C-13 °C28 %1026.1 hPa16.1 kmWSW (250°)9.3 km/hClear
1:55 PM4 °C-14 °C26 %1025.7 hPa16.1 kmNW (320°)11.1 km/hClear
2:15 PM4 °C-13 °C28 %1025.4 hPa16.1 kmWest (280°)14.8 km/hClear
2:35 PM4 °C-13 °C28 %1025.4 hPa16.1 kmWSW (240°)5.6 km/hClear
2:55 PM4 °C-13 °C28 %1025.1 hPa16.1 kmCalmClear
3:15 PM5 °C-12 °C29 %1025.1 hPa16.1 kmWest (260°)11.1 km/h31.5 km/hClear
3:35 PM4 °C-12 °C31 %1025.1 hPa16.1 kmWest (280°)11.1 km/hClear
3:55 PM4 °C-12 °C31 %1025.1 hPa16.1 kmWest (270°)5.6 km/hClear
4:15 PM4 °C-12 °C31 %1025.1 hPa16.1 kmWSW (250°)7.4 km/hClear
4:35 PM4 °C-12 °C31 %1024.7 hPa16.1 kmSW (220°)11.1 km/hClear
4:55 PM4 °C-12 °C31 %1024.7 hPa16.1 kmSW (230°)7.4 km/hClear
5:15 PM4 °C-12 °C31 %1024.7 hPa16.1 kmWSW (250°)5.6 km/hClear
5:35 PM2 °C-9 °C44 %1024.7 hPa16.1 kmCalmClear
5:55 PM1 °C-8 °C52 %1024.7 hPa16.1 kmCalmClear
6:15 PM1 °C-9 °C48 %1024.7 hPa16.1 kmCalmClear
6:35 PM0 °C-8 °C55 %1024.7 hPa16.1 kmCalmClear
6:55 PM-1 °C-7 °C64 %1024.7 hPa16.1 kmCalmClear
7:15 PM-1 °C-8 °C60 %1024.4 hPa16.1 kmCalmClear
7:35 PM-1 °C-8 °C60 %1024 hPa16.1 kmSouth (180°)11.1 km/hClear
7:55 PM-2 °C-7 °C69 %1024 hPa16.1 kmSouth (190°)9.3 km/hClear
8:15 PM-1 °C-7 °C64 %1023.7 hPa16.1 kmSouth (190°)9.3 km/hClear
8:35 PM0 °C-7 °C60 %1023.4 hPa16.1 kmSouth (180°)9.3 km/hClear
8:55 PM0 °C-7 °C60 %1023.4 hPa16.1 kmSouth (190°)9.3 km/hClear
9:15 PM-1 °C-7 °C64 %1023 hPa16.1 kmSouth (190°)7.4 km/hClear
9:35 PM-1 °C-7 °C64 %1023 hPa16.1 kmSouth (180°)9.3 km/hClear
9:55 PM-2 °C-7 °C69 %1022.7 hPa16.1 kmSSW (200°)7.4 km/hClear
10:15 PM-2 °C-7 °C69 %1022.7 hPa16.1 kmSouth (190°)7.4 km/hClear
10:35 PM-1 °C-7 °C64 %1022 hPa16.1 kmSSW (200°)5.6 km/hClear
10:55 PM-2 °C-6 °C74 %1021.7 hPa16.1 kmSouth (190°)9.3 km/hClear
11:15 PM-1 °C-7 °C64 %1021.3 hPa16.1 kmSouth (190°)7.4 km/hClear
11:35 PM-1 °C-7 °C64 %1021 hPa16.1 kmSouth (190°)9.3 km/hClear
11:55 PM-1 °C-6 °C69 %1020.3 hPa16.1 kmSouth (190°)11.1 km/hClear
Hourly data recorded from KOAJ, located 19.94 kilometers away from Sloan, North Carolina







STORIES FROM OUR PARTNERS